Twin Falls, ID

2:51 AM MDT on August 29, 2016 (GMT -0600)
Joslin Field-Magic Valley Regional

Weather History for KTWF - October, 2011

Change the Weather History Date:

Thursday, October 27, 2011

  Actual Average Record
Temperature  
Mean Temperature 45 °F -  
Max Temperature 56 °F 58 °F 74 °F (1992)
Min Temperature 33 °F 34 °F 23 °F (1996)
Degree Days  
Heating Degree Days 20 19  
Month to date heating degree days 320 378  
Since 1 July heating degree days 332 539  
Cooling Degree Days 0 0  
Month to date cooling degree days 20 0  
Year to date cooling degree days 736 678  
Moisture  
Dew Point 16 °F    
Average Humidity 36    
Maximum Humidity 52    
Minimum Humidity 19    
Precipitation  
Precipitation 0.00 in 0.03 in 0.34 in (1982)
Month to date precipitation 1.22 0.68  
Year to date precipitation 8.35 8.13  
Sea Level Pressure  
Sea Level Pressure 30.19 in    
Wind  
Wind Speed 10 mph (SSW)    
Max Wind Speed 16 mph    
Max Gust Speed 21 mph    
Visibility 10 miles    
Events      
T = Trace of Precipitation, MM = Missing Value Source: NWS Daily Summary

Daily Weather History Graph

Daily Weather History Graph

Search for Another Location

Airport or City:

Trip Planner

Search our weather history database for the weather conditions in past years. The results will help you decide how hot, cold, wet, or windy it might be!

Date:

Astronomy

Oct. 27, 2011 Rise Set
Actual Time 8:05 AM MDT 6:37 PM MDT
Civil Twilight 7:36 AM MDT 7:06 PM MDT
Nautical Twilight 7:03 AM MDT 7:39 PM MDT
Astronomical Twilight 6:30 AM MDT 8:12 PM MDT
Moon 9:15 AM MDT (10/27) 7:07 PM MDT (10/27)
Length of Visible Light 11h 30m
Length of Day
10h 32m
New Moon, 1% of the Moon is Illuminated
Oct 27
New Moon
Nov 2
First Quarter
Nov 10
Full
Nov 18
Last Quarter
Nov 24
New

Hourly Weather History & Observations

Time (MDT) Temp. Windchill Dew Point Humidity Pressure Visibility Wind Dir Wind Speed Gust Speed Precip Events Conditions
12:53 AM 35.1 °F 26.9 °F 19.0 °F 52% 30.22 in 10.0 mi South 11.5 mph - N/A   Clear
1:53 AM 35.6 °F 28.6 °F 19.4 °F 52% 30.23 in 10.0 mi South 9.2 mph - N/A   Scattered Clouds
2:53 AM 37.9 °F 31.5 °F 19.0 °F 47% 30.19 in 10.0 mi South 9.2 mph - N/A   Mostly Cloudy
3:53 AM 37.9 °F 32.1 °F 19.0 °F 47% 30.17 in 10.0 mi SSW 8.1 mph - N/A   Mostly Cloudy
4:53 AM 37.4 °F 30.3 °F 19.4 °F 48% 30.20 in 10.0 mi South 10.4 mph - N/A   Partly Cloudy
5:53 AM 35.6 °F 27.1 °F 17.6 °F 48% 30.19 in 10.0 mi South 12.7 mph - N/A   Clear
6:53 AM 35.1 °F 26.4 °F 16.0 °F 46% 30.19 in 10.0 mi SSW 12.7 mph - N/A   Clear
7:53 AM 33.1 °F 23.9 °F 16.0 °F 50% 30.21 in 10.0 mi South 12.7 mph - N/A   Clear
8:53 AM 37.0 °F 29.3 °F 15.1 °F 41% 30.22 in 10.0 mi South 11.5 mph - N/A   Clear
9:53 AM 45.0 °F 40.1 °F 14.0 °F 29% 30.21 in 10.0 mi SW 9.2 mph - N/A   Clear
10:53 AM 48.0 °F - 16.0 °F 28% 30.22 in 10.0 mi SW 10.4 mph - N/A   Clear
12:53 PM 54.0 °F - 12.0 °F 19% 30.18 in 10.0 mi WSW 10.4 mph - N/A   Clear
1:53 PM 54.0 °F - 12.0 °F 19% 30.15 in 10.0 mi West 9.2 mph - N/A   Clear
2:53 PM 55.9 °F - 14.0 °F 19% 30.14 in 10.0 mi WNW 16.1 mph 20.7 mph N/A   Clear
3:53 PM 54.0 °F - 12.9 °F 20% 30.14 in 10.0 mi WSW 11.5 mph - N/A   Clear
4:53 PM 54.0 °F - 15.1 °F 22% 30.14 in 10.0 mi WSW 9.2 mph - N/A   Clear
5:53 PM 51.1 °F - 17.1 °F 26% 30.14 in 10.0 mi WSW 6.9 mph - N/A   Clear
6:53 PM 42.8 °F 40.1 °F 17.6 °F 36% 30.19 in 10.0 mi SSW 4.6 mph - N/A   Clear
7:53 PM 37.9 °F 32.1 °F 18.0 °F 45% 30.21 in 10.0 mi SW 8.1 mph - N/A   Clear
8:53 PM 39.0 °F 32.3 °F 18.0 °F 43% 30.19 in 10.0 mi SSW 10.4 mph - N/A   Clear
9:53 PM 41.0 °F 33.9 °F 17.1 °F 38% 30.19 in 10.0 mi South 12.7 mph - N/A   Clear
10:53 PM 39.9 °F 32.5 °F 17.1 °F 40% 30.21 in 10.0 mi SSW 12.7 mph - N/A   Clear
11:53 PM 34.0 °F 25.0 °F 18.0 °F 52% 30.21 in 10.0 mi South 12.7 mph - N/A   Clear